Other Public Products
Issued by NWS Charleston, SC

Current Version | Previous Version | Graphics & Text | Print | Product List | Glossary On
Versions: 1 2 3 4 5 6 7 8 9 10 11 12 13 14 15 16 17 18 19 20 21 22 23 24 25 26 27 28 29 30 31 32 33 34 35 36 37 38 39 40 41 42 43 44 45 46 47 48 49 50
000
FPUS82 KCHS 211927
OPUCHS

TEST...KCHS/KSAV Gateway Observations...TEST
National Weather Service Charleston SC
300 PM EDT SAT APR 21 2018

NOTE: "fair" indicates few or no clouds below 12,000 feet with no
significant weather and/or obstructions to visibility.

SCZ050-WAZ558-NCZ071-TXZ119-213-PAZ071-DCZ001-FLZ074-172-MI076-
NYZ176-178-MAZ016-IL014-TNZ027-NJZ106-GAZ044-MD014-212000-

...Gateway Observations for Charleston International...

CITY           SKY/WX    TMP DP  RH WIND       PRES   REMARKS
Chas Airport   FAIR      72  49  44 E17       30.34S
Seattle        MOSUNNY   53  37  54 SW12      30.39S
Charlotte      FAIR      68  33  27 S10       30.35F
Dallas DFW     DRIZZLE   60  59  96 S10       29.93F FOG
Dallas Love    LGT RAIN  62  60  93 SE13      29.94F
Philladelphia  PTSUNNY   58  25  28 CALM      30.35F
Wash National  PTSUNNY   59  29  31 SE6       30.38F
Baltimore      PTSUNNY   60  26  27 VRB5      30.36F
Miami          PTSUNNY   82  63  52 E12       30.09F
Detroit        CLOUDY    54  22  28 SW3       30.43F
Newark         PTSUNNY   61  32  33 SW12G23   30.28F
Laguardia      FAIR      60  22  23 NW12      30.29F
J F K          FAIR      60  21  22 NW13G23   30.30F
Boston Logan   FAIR      58  22  24 NW17G28   30.20F
Ft. Lauderdale PTSUNNY   82  68  62 E16       30.09F
Chicago O`Hare CLOUDY    52  26  36 N6        30.42R
Chicago Midway CLOUDY    49  27  42 E5        30.43R
Houston Bush   CLOUDY    72  65  78 E12       29.99F
Houston Hobby  LGT RAIN  73  69  87 E12       29.98F
Nashville      FAIR      75  34  22 VRB5      30.25F
Atlanta        PTSUNNY   70  41  34 SE10G17   30.28F

$$

GAZ044-118-TXZ119-213-NCZ071-DCZ001-MDZ014-506-PAZ021-071-NJZ106-
NYZ176-178-MAZ106-OHZ011-021-055-MIZ076-KYZ091-ILZ014-INZ047-
MNZ060-ONZ431-212000-

...Gateway Observations for Savannah International...

CITY           SKY/WX    TMP DP  RH WIND       PRES   REMARKS
Savannah Arpt  PTSUNNY   72  54  53 E13       30.31S
Atlanta        PTSUNNY   70  41  34 SE10G17   30.28F
Charlotte      FAIR      68  33  27 S10       30.35F
Dallas DFW     DRIZZLE   60  59  96 S10       29.93F FOG
Houston Bush   CLOUDY    72  65  78 E12       29.99F
Wash National  PTSUNNY   59  29  31 SE6       30.38F
Wash Dulles    PTSUNNY   60  27  28 NW7       30.38F
Baltimore      PTSUNNY   60  26  27 VRB5      30.36F
Philadelphia   PTSUNNY   58  25  28 CALM      30.35F
Newark         PTSUNNY   61  32  33 SW12G23   30.28F
Laguardia      FAIR      60  22  23 NW12      30.29F
J F K          FAIR      60  21  22 NW13G23   30.30F
Boston         FAIR      58  22  24 NW17G28   30.20F
Pittsburg      CLOUDY    54  23  30 VRB3      30.39F
Akron          CLOUDY    55  18  23 N5        30.41F
Cleveland      CLOUDY    50  21  32 N12       30.46F
Cincinnati     CLOUDY    60  23  24 VRB6      30.35F
Columbus       FAIR      57  22  25 CALM      30.38F
Detroit        CLOUDY    54  22  28 SW3       30.43F
Chicago O`Hare CLOUDY    52  26  36 N6        30.42R
Minneapolis    FAIR      57  19  22 NW5       30.37F
Indianapolis   PTSUNNY   58  24  27 E13       30.36F
Toronto Canada PTSUNNY   55  19  24 W6        30.40F

$$




USA.gov is the U.S. government's official web portal to all federal, state and local government web resources and services.